OPS 4682 DEB, 17666

Orbit data source: Space-Track

OPS 4682 DEB, 17666 is space debris in LEO originally from a launch on Sat, 03 Apr 1965 UTC launched from the Air Force Western Test Range (AFWTR). Debris objects in space refer to the collection of defunct objects orbiting the Earth. Examples of debris include non-operational satellites, rocket bodies, and fragments generated from explosions, collisions, or faulty payload assembly.

Loading next visibility...
Identifier
17666, 1965-027V
Orbit
LEO
Country
Flag of USUS
Related business
Manufacturer
Unknown
Mission
Spacecraft
Bus & Motor
Unknown
Mass
Unknown
Launch date (UTC)
1965-04-03 (61 years ago)
Launch vehicle
Unknown
Launch site
Air Force Western Test Range (AFWTR)
Object type
Payload
Rocket body
Debris
Shape & HBR
Unknown shape, 0.1 m
Radar Cross Section
Small (<0.1 m²)

Expand to show TLE details & history
Last TLE update: 18 hours ago

TLE from 18 hours ago
0 OPS 4682 DEB
1 17666U 65027V   25292.95130367 -.00000090  00000-0 -33767-3 0  9990
2 17666  90.2485   6.5941 0039038   1.6727  63.9710 12.97076353918666
Epoch: 2025-10-19T22:49Z
TLE epoch observation values (Epoch: 2025-10-19T22:49:52.637Z)
Latitude
66.12271°
Longitude
-5.09439°
Altitude
1,272.053 km
Speed
7.232 km/s
True Right ascension
00h 24m 08s
True Declination
66° 00' 13"
Sunlit
Object was in daylight at epoch
Visualization orbit readout
Latitude
Unknown
Longitude
Unknown
Altitude
Unknown
Speed
Unknown
Apparent Right ascension
Unknown
Apparent Declination
Unknown
Sunlit
N/A
Visualization observer readout
Local Sidereal Time
11:36:05
Azimuth
Unknown
Elevation
Unknown
Doppler factor
Unknown
Orbital elements
Apogee altitude
1,300.554 km
Perigee altitude
1,240.835 km
Semi-major axis
7,648.831 km
Eccentricity
0.0039
Inclination
90.2485°
RAAN
6.5941°
Arg. of periapsis
1.6727°
True anomaly
64.37383°
Mean anomaly
63.971°
Eccentric anomaly
64.17233°
Mean motion
3.24452 °/min
Orbital period
110.96 mins
BSTAR
-0.00033767
Loading maneuver chart data...
Computing Atmospheric mass density...
Loading historical data...
Loading historical data...
Loading historical data...
Loading historical data...
Loading historical data...
Loading historical data...
Loading historical data...

Documentation

Showing up to 5 results
|